This is the latest recevied weather packets stored in our database for station/object CE3TL-WX. If no packets are shown the sender has not sent any weather packets the latest 10 day(s).
| Time | Temp. | Humidity | Pressure | Rain* | Wind** | Luminosity | Snow |
|---|---|---|---|---|---|---|---|
| 1777905354 | 15.56° C | 42% | 1024.2 hPa | - | - | - | - |
| 1777904820 | 15.56° C | 42% | 1024.1 hPa | - | - | - | - |
| 1777904285 | 15.56° C | 42% | 1024.1 hPa | - | - | - | - |
| 1777903751 | 15.56° C | 42% | 1024.1 hPa | - | - | - | - |
| 1777903218 | 15° C | 42% | 1024.1 hPa | - | - | - | - |
| 1777902684 | 15° C | 45% | 1024.1 hPa | - | - | - | - |
| 1777901598 | 14.44° C | 45% | 1024.3 hPa | - | - | - | - |
| 1777901064 | 14.44° C | 46% | 1024.2 hPa | - | - | - | - |
| 1777900529 | 13.89° C | 48% | 1024.2 hPa | - | - | - | - |
| 1777899995 | 13.89° C | 50% | 1024.2 hPa | - | - | - | - |
| 1777899462 | 13.89° C | 51% | 1024.1 hPa | - | - | - | - |
| 1777898928 | 13.33° C | 50% | 1024 hPa | - | - | - | - |
| 1777898394 | 13.33° C | 50% | 1024 hPa | - | - | - | - |
| 1777897859 | 13.33° C | 50% | 1024 hPa | - | - | - | - |
| 1777897326 | 12.78° C | 51% | 1024 hPa | - | - | - | - |
| 1777896791 | 12.78° C | 51% | 1023.9 hPa | - | - | - | - |
| 1777896257 | 12.78° C | 52% | 1024 hPa | - | - | - | - |
| 1777895722 | 12.78° C | 50% | 1023.9 hPa | - | - | - | - |
| 1777895189 | 12.22° C | 51% | 1023.9 hPa | - | - | - | - |
| 1777894654 | 12.22° C | 51% | 1023.9 hPa | - | - | - | - |
| 1777894121 | 12.22° C | 50% | 1023.7 hPa | - | - | - | - |
| 1777893586 | 12.78° C | 50% | 1023.7 hPa | - | - | - | - |
| 1777893053 | 12.78° C | 51% | 1023.8 hPa | - | - | - | - |
| 1777892519 | 12.22° C | 51% | 1023.7 hPa | - | - | - | - |
| 1777891986 | 12.22° C | 51% | 1023.7 hPa | - | - | - | - |
* Rain since midnight (hover to see other rain measurements)
** Current wind speed in m/s (hover to see current wind gust speed)